User: anonymous   Login
Location: *
(31.2983°S, 151.4094°E)
Time: 12:04:05
(UTC+00:00)
Language:

Chandra Rocket (1) - Orbit

View from above orbital plane
View from above orbital plane
View from above satellite
View from above satellite

Ground track
Ground track

The orbit data is extracted from the following two-line orbital elements,

1 25868U 99040C   19294.87434489 +.00001849 +00000-0 +22191-3 0  9993
2 25868 028.4354 070.6183 4463622 096.1633 314.7983 06.55346652452500
Epoch (UTC): 21 October 2019 20:59:03
Eccentricity: 0.4463622
inclination: 28.4354°
perigee height: 300 km
apogee height: 11068 km
right ascension of ascending node: 70.6183°
argument of perigee: 96.1633°
revolutions per day: 6.55346652
mean anomaly at epoch: 314.7983°
orbit number at epoch: 45250

The dashed part of the orbit path shows where the satellite is in the earth's shadow,  

DLR